Location: El Águila
(10.4167°N, 66.7167°W)
Time: 04:54:37
(UTC+00:00)

Okean 2 - Pass Details

Date: 02 October 2022
Orbit: 554 x 572 km, 82.5° (Epoch: 26 November)

Event Time Altitude Azimuth Distance (km) Brightness Sun altitude
Rises 22:43:59 0° 4° (N) 2,763 6.8 -7.5°
Reaches altitude 10° 22:46:13 10° 10° (N) 1,864 5.9 -8.1°
Maximum altitude 22:50:12 49° 85° (E) 732 3.5 -9.1°
Drops below altitude 10° 22:54:10 10° 161° (SSE) 1,855 5.8 -10.0°
Sets 22:56:23 0° 166° (SSE) 2,747 6.8 -10.6°
